Regional Weather Roundup
Issued by NWS Charleston, SC

Current Version | Previous Version | Text Only | Print | Product List | Glossary On
Versions: 1 2 3 4 5 6 7 8 9 10 11 12 13 14 15 16 17 18 19 20 21 22 23 24 25 26 27 28 29 30 31 32 33 34 35 36 37 38 39 40 41 42 43 44 45 46 47 48 49 50
212 ASUS42 KCHS 250427 RWRCHS REGIONAL WEATHER ROUNDUP NATIONAL WEATHER SERVICE CHARLESTON SC 1100 PM EST FRI FEB 24 2017 NOTE: "FAIR" INDICATES FEW OR NO CLOUDS BELOW 12,000 FEET WITH NO SIGNIFICANT WEATHER AND/OR OBSTRUCTIONS TO VISIBILITY. NOT ALL STATIONS ARE QUALITY CONTROLLED. USE DATA WITH CAUTION... ESPECIALLY DEWPOINT OBSERVATIONS. SCZ027-030-031-034>040-042>050-250500- ...SOUTHEAST SOUTH CAROLINA... CITY SKY/WX TMP DP RH WIND PRES REMARKS N CHARLESTON CLEAR 61 58 90 CALM 29.85S WATERFRONT PRK N/A 62 62 100 CALM 29.85R MOUNT PLEASANT FAIR 57 57 100 CALM 29.85F JOHNS ISLAND FAIR 59 57 94 CALM 29.86S FOG PINOPOLIS N/A N/A N/A N/A CALM 29.76S MONCKS CORNER FAIR 57 55 94 CALM 29.86R FOG SUMMERVILLE FAIR 61 59 94 CALM 29.87S BEAUFORT MCAS CLEAR 60 60 100 CALM 29.86S BEAUFORT ARPT FAIR 61 61 100 CALM 29.86S HILTON HEAD IS CLEAR 63 61 94 CALM 29.87S WALTERBORO CLEAR 61 59 94 CALM 29.87S ALLENDALE FAIR 63 61 94 CALM 29.85S ...SOUTHERN MIDLANDS AND PEE DEE... CITY SKY/WX TMP DP RH WIND PRES REMARKS GEORGETOWN FAIR 52 52 100 CALM 29.86S KINGSTREE FAIR 57 55 94 CALM 29.86R ORANGEBURG PTCLDY 63 58 83 S5 29.86R BARNWELL FAIR 66 61 82 SE6 29.85F AIKEN FAIR 61 54 77 S6 29.87S MANNING FAIR 59 55 88 MISG 29.86S COLUMBIA CLEAR 68 57 68 S13 29.83S SUMTER CLEAR 60 56 85 CALM 29.83R FLORENCE CLEAR 61 59 93 S3 29.85S MYRTLE BEACH PTCLDY 60 58 92 CALM 29.85F N MYRTLE BEACH CLEAR 57 57 100 CALM 29.84F FOG $$ GAZ063-065-086>088-099>101-113>116-118-119-134>141-150-250500- ...SOUTHEAST GEORGIA... CITY SKY/WX TMP DP RH WIND PRES REMARKS SAVANNAH ARPT CLEAR 60 58 92 CALM 29.87R HUNTER AAF CLEAR 61 61 100 CALM 29.84R FORT STEWART NOT AVBL STATESBORO CLEAR 63 63 100 S3 29.86S SYLVANIA CLEAR N/A N/A N/A CALM 29.86F CLAXTON FAIR N/A N/A N/A CALM 29.86S ...CSRA...CENTRAL AND FAR SOUTHEAST GEORGIA... CITY SKY/WX TMP DP RH WIND PRES REMARKS THOMSON CLEAR 66 59 78 S3 29.86F AUGUSTA-BUSH CLEAR 63 56 78 S6 29.83S AUGUSTA-DANIEL CLEAR 67 54 63 SE6 29.84S SWAINSBORO FAIR 64 61 88 SE6 29.85S VIDALIA PTCLDY 64 63 94 S7 29.84F EASTMAN FAIR 66 53 62 S6 29.86S HAZLEHURST FAIR 67 65 93 S5 29.84S ALMA CLEAR 65 63 93 SE3 29.85S WAYCROSS PTCLDY 67 67 100 S3 29.86S JESUP FAIR 61 59 94 CALM 29.87S FOG BAXLEY FAIR 64 64 100 S3 29.85F BRUNSWICK FOG 59 59 100 CALM 29.87F VSB 1/4 SAINT SIMONS CLEAR 65 63 93 SE7 29.86R $$ SCZ027-028-034-036>038-045-046-048>050-GAZ119-141-250500- ...LAKE AND SUPPLEMENTAL COASTAL OBSERVATIONS... STATION/POSITION TIME TEMP WIND PRES WAVE SWELL AIR SEA DIR/SP/G HT/PER HT/PER/DIR (UTC) (F) (DEG/KT/KT) (MB) (FT/S) (FT/S/D) WINYAH BAY 0345 60 310/ 1 1010.0F LAKE MURRAY 0330 67 160/ 12/ 15 1009.8R ACE BASIN NERRS 0345 60 CALM 1011.0S FORT PULASKI 0400 64 63 140/ 4/ 6 1011.4 SAPELO ISLAND 0400 64 120/ 5 1011.0 $$ ANZ835-935-AMZ111-154-330-350-352-354-370-450-454-472-250500- ...C-MAN AND BUOY OBSERVATIONS... STATION/POSITION TIME TEMP WIND PRES WAVE SWELL AIR SEA DIR/SP/G HT/PER HT/PER/DIR (UTC) (F) (DEG/KT/KT) (MB) (FT/S) (FT/S/D) BUOY 41004 0350 69 71 80/ 2/ 4 1010.2F 6/11 7/100/11 BUOY 41008 0350 63 62 130/ 4/ 6 1010.9R 4/10 5/ 80/10 FOLLY BEACH CMAN 0400 63 210/ 3/ 3 1011.4R CAPERS NEARSHORE 0308 62 60 130/ 4/ 8 1010.5R FRIPP NEARSHORE 0408 63 61 200/ 4/ 4 1011.0R STATION/POSITION TIME TEMP WIND PRES WAVE SWELL AIR SEA DIR/SP/G HT/PER HT/PER/DIR (UTC) (F) (DEG/KT/KT) (MB) (FT/S) (FT/S/D) 5E ST. MARYS GA 0400 64 N/A 4/11 2/100/11 FRYING PAN BUOY 0410 71 50/ 8/ 10 1009.8 BUOY 41025 0350 71 76 100/ 14/ 16 1010.2F 9/10 8/130/10 CAPE LOOKOUT NC 0400 66 100/ 10/ 11 1009.4F BUOY 41002 0350 69 70 210/ 4/ 6 1008.0R 10/10 10/ 90/10 BUOY 41010 NOT AVBL ST AUGUSTINE FL 0400 67 67 100/ 4/ 5 1011.9F $$

USA.gov is the U.S. government's official web portal to all federal, state and local government web resources and services.